Location: Bruderhein
(53.8035°N, 112.9265°W)
Time: 07:27:02
(UTC+00:00)

RS-15 - Pass Details

Date: 04 April 2023
Orbit: 1885 x 2159 km, 64.8° (Epoch: 29 May)

Event Time Altitude Azimuth Distance (km) Brightness Sun altitude
Rises 07:43:07 0° 319° (NW) 5,645 11.1 -30.5°
Reaches altitude 10° 07:46:44 10° 315° (NW) 4,613 10.4 -30.5°
Maximum altitude 07:57:55 49° 246° (WSW) 2,495 8.3 -30.4°
Enters shadow 07:59:55 46° 220° (SW) 2,573 8.2 -30.3°
